QPF
0.00 0.00 0.00 0.00 0.00 0.00 0.00 0.00 0.00 0.00 0.00 0.00 0.00 0.00 0.00 0.00 0.00 0.00 0.00 0.00 0.00 0.00 0.00 0.00 0.00 0.01 0.03 0.07 0.14 0.14 0.12 0.08 0.07 0.09 0.10 0.09 0.08 0.07 0.06 0.03 0.04 0.08 0.10 0.16
0.00 0.00 0.00 0.00 0.00 0.00 0.00 0.00 0.00 0.00 0.00 0.00 0.00 0.00 0.00 0.00 0.00 0.00 0.00 0.01 0.00 0.00 0.00 0.00 0.00 0.00 0.01 0.02 0.05 0.08 0.07 0.04 0.05 0.04 0.04 0.03 0.01 0.01 0.02 0.01 0.01 0.03 0.06 0.12
0.00 0.00 0.00 0.00 0.00 0.00 0.00 0.00 0.00 0.00 0.00 0.00 0.00 0.00 0.00 0.00 0.00 0.00 0.01 0.01 0.00 0.00 0.01 0.01 0.01 0.01 0.00 0.01 0.01 0.01 0.01 0.01 0.01 0.01 0.01 0.00 0.00 0.00 0.00 0.00 0.01 0.01 0.02 0.04
0.00 0.00 0.00 0.00 0.00 0.00 0.00 0.00 0.00 0.00 0.00 0.00 0.00 0.00 0.00 0.00 0.00 0.01 0.01 0.00 0.00 0.00 0.00 0.00 0.00 0.00 0.00 0.00 0.00 0.00 0.00 0.00 0.00 0.00 0.00 0.00 0.00 0.00 0.00 0.01 0.01 0.01 0.02 0.03
0.00 0.00 0.00 0.00 0.00 0.00 0.00 0.00 0.00 0.00 0.00 0.00 0.00 0.00 0.00 0.01 0.02 0.01 0.02 0.01 0.00 0.00 0.00 0.00 0.00 0.00 0.00 0.00 0.00 0.00 0.00 0.00 0.00 0.00 0.00 0.00 0.00 0.01 0.01 0.00 0.01 0.01 0.02 0.03
0.00 0.00 0.00 0.00 0.00 0.00 0.00 0.00 0.00 0.00 0.00 0.00 0.00 0.00 0.00 0.01 0.01 0.00 0.01 0.01 0.00 0.00 0.00 0.00 0.00 0.00 0.00 0.00 0.00 0.00 0.00 0.00 0.00 0.01 0.01 0.02 0.03 0.02 0.02 0.01 0.01 0.01 0.02 0.04
0.00 0.00 0.01 0.01 0.00 0.00 0.00 0.00 0.00 0.00 0.00 0.00 0.00 0.00 0.00 0.00 0.00 0.00 0.01 0.00 0.00 0.00 0.00 0.00 0.00 0.00 0.00 0.00 0.00 0.00 0.00 0.00 0.00 0.00 0.01 0.02 0.02 0.01 0.01 0.01 0.01 0.01 0.02 0.03
0.00 0.01 0.02 0.01 0.00 0.00 0.00 0.00 0.00 0.00 0.00 0.00 0.00 0.00 0.00 0.00 0.00 0.00 0.00 0.00 0.00 0.00 0.00 0.00 0.00 0.00 0.00 0.00 0.00 0.00 0.00 0.00 0.00 0.00 0.00 0.00 0.00 0.00 0.00 0.00 0.01 0.01 0.02 0.05
0.00 0.00 0.00 0.00 0.00 0.00 0.00 0.00 0.00 0.00 0.00 0.00 0.00 0.00 0.00 0.00 0.00 0.00 0.00 0.00 0.00 0.00 0.00 0.00 0.00 0.00 0.00 0.00 0.00 0.00 0.00 0.00 0.00 0.00 0.00 0.00 0.00 0.00 0.00 0.00 0.02 0.03 0.05 0.07
0.00 0.00 0.00 0.00 0.00 0.00 0.00 0.00 0.00 0.00 0.00 0.00 0.00 0.00 0.00 0.00 0.00 0.00 0.00 0.00 0.00 0.00 0.00 0.00 0.00 0.00 0.00 0.00 0.00 0.00 0.00 0.00 0.00 0.00 0.00 0.00 0.00 0.00 0.00 0.01 0.04 0.05 0.05 0.06
0.00 0.00 0.00 0.00 0.00 0.00 0.00 0.00 0.00 0.00 0.00 0.00 0.00 0.00 0.00 0.00 0.00 0.00 0.00 0.00 0.00 0.00 0.00 0.00 0.00 0.00 0.00 0.00 0.00 0.00 0.00 0.00 0.00 0.00 0.00 0.01 0.00 0.00 0.00 0.00 0.02 0.03 0.04 0.06
0.00 0.00 0.00 0.00 0.00 0.00 0.00 0.00 0.00 0.00 0.00 0.00 0.00 0.00 0.00 0.00 0.00 0.00 0.00 0.00 0.00 0.00 0.00 0.00 0.00 0.00 0.00 0.00 0.00 0.00 0.00 0.00 0.00 0.01 0.01 0.01 0.01 0.01 0.00 0.00 0.00 0.01 0.03 0.04
0.00 0.00 0.00 0.00 0.00 0.00 0.00 0.00 0.00 0.00 0.00 0.00 0.00 0.00 0.00 0.00 0.00 0.00 0.00 0.00 0.00 0.00 0.00 0.00 0.00 0.00 0.00 0.00 0.00 0.00 0.00 0.00 0.00 0.00 0.01 0.01 0.01 0.01 0.00 0.00 0.00 0.01 0.02 0.03
0.00 0.00 0.00 0.00 0.00 0.00 0.00 0.00 0.00 0.00 0.00 0.00 0.00 0.00 0.00 0.00 0.00 0.00 0.00 0.00 0.00 0.00 0.00 0.00 0.00 0.00 0.00 0.00 0.00 0.00 0.00 0.00 0.00 0.00 0.01 0.01 0.00 0.01 0.02 0.02 0.02 0.03 0.02 0.02
0.00 0.00 0.00 0.00 0.00 0.00 0.00 0.00 0.00 0.00 0.00 0.00 0.00 0.00 0.00 0.00 0.00 0.00 0.00 0.00 0.00 0.00 0.00 0.00 0.00 0.00 0.00 0.00 0.00 0.00 0.00 0.00 0.00 0.00 0.02 0.01 0.01 0.01 0.00 0.01 0.02 0.02 0.01 0.00
0.00 0.00 0.00 0.00 0.00 0.00 0.00 0.00 0.00 0.00 0.00 0.00 0.00 0.00 0.00 0.00 0.00 0.00 0.00 0.00 0.00 0.00 0.00 0.00 0.00 0.00 0.00 0.00 0.00 0.00 0.00 0.00 0.00 0.01 0.04 0.02 0.02 0.02 0.00 0.01 0.01 0.01 0.00 0.00
0.00 0.00 0.00 0.00 0.00 0.00 0.00 0.00 0.00 0.00 0.00 0.00 0.00 0.00 0.00 0.00 0.00 0.00 0.00 0.00 0.00 0.00 0.00 0.00 0.00 0.00 0.00 0.00 0.00 0.00 0.00 0.00 0.00 0.01 0.06 0.06 0.05 0.04 0.01 0.00 0.00 0.00 0.00 0.00
0.00 0.00 0.00 0.00 0.00 0.00 0.00 0.00 0.00 0.00 0.00 0.00 0.00 0.00 0.00 0.01 0.00 0.00 0.00 0.00 0.00 0.00 0.00 0.00 0.00 0.00 0.00 0.00 0.00 0.01 0.01 0.01 0.00 0.01 0.06 0.09 0.08 0.05 0.02 0.00 0.00 0.00 0.00 0.00
0.00 0.00 0.00 0.00 0.00 0.00 0.00 0.00 0.00 0.00 0.00 0.00 0.01 0.02 0.02 0.02 0.01 0.01 0.01 0.00 0.01 0.00 0.00 0.00 0.00 0.00 0.00 0.01 0.01 0.02 0.02 0.02 0.02 0.02 0.03 0.06 0.09 0.07 0.03 0.01 0.00 0.00 0.00 0.00
0.00 0.00 0.00 0.00 0.00 0.00 0.00 0.01 0.02 0.01 0.02 0.06 0.07 0.07 0.05 0.03 0.04 0.03 0.01 0.00 0.00 0.00 0.00 0.00 0.01 0.01 0.02 0.02 0.03 0.03 0.04 0.05 0.05 0.05 0.06 0.08 0.09 0.08 0.03 0.01 0.00 0.00 0.00 0.00
0.00 0.00 0.00 0.00 0.00 0.01 0.01 0.03 0.07 0.10 0.12 0.10 0.08 0.07 0.06 0.06 0.05 0.03 0.01 0.01 0.01 0.00 0.00 0.01 0.01 0.02 0.04 0.06 0.08 0.10 0.12 0.13 0.12 0.12 0.12 0.13 0.12 0.09 0.04 0.01 0.00 0.01 0.01 0.00
0.00 0.00 0.00 0.00 0.01 0.04 0.05 0.06 0.09 0.09 0.07 0.05 0.04 0.04 0.03 0.02 0.01 0.01 0.00 0.01 0.01 0.00 0.00 0.01 0.02 0.02 0.04 0.07 0.10 0.14 0.15 0.16 0.16 0.17 0.16 0.17 0.16 0.11 0.05 0.01 0.00 0.01 0.01 0.01
0.00 0.00 0.00 0.01 0.03 0.03 0.02 0.02 0.03 0.03 0.03 0.03 0.02 0.02 0.01 0.01 0.00 0.00 0.00 0.00 0.00 0.00 0.00 0.00 0.01 0.02 0.03 0.04 0.06 0.08 0.11 0.11 0.12 0.14 0.15 0.16 0.18 0.13 0.08 0.04 0.01 0.01 0.01 0.01
0.00 0.00 0.01 0.04 0.04 0.04 0.02 0.01 0.01 0.01 0.01 0.01 0.00 0.00 0.00 0.00 0.00 0.00 0.00 0.00 0.00 0.00 0.00 0.00 0.00 0.01 0.01 0.02 0.04 0.05 0.09 0.13 0.13 0.14 0.14 0.15 0.15 0.15 0.12 0.08 0.04 0.01 0.01 0.01
0.00 0.00 0.00 0.02 0.03 0.02 0.01 0.00 0.00 0.00 0.00 0.00 0.00 0.00 0.00 0.00 0.00 0.00 0.00 0.00 0.00 0.00 0.00 0.00 0.00 0.00 0.01 0.01 0.01 0.02 0.04 0.10 0.13 0.13 0.14 0.16 0.16 0.16 0.15 0.11 0.10 0.05 0.02 0.01
0.00 0.00 0.00 0.00 0.00 0.00 0.00 0.00 0.00 0.00 0.00 0.00 0.00 0.00 0.00 0.00 0.00 0.00 0.00 0.00 0.00 0.00 0.00 0.00 0.00 0.00 0.00 0.00 0.00 0.00 0.01 0.06 0.11 0.13 0.13 0.16 0.17 0.18 0.16 0.13 0.11 0.09 0.04 0.02
MSLP
1012.29 1012.85 1013.23 1013.42 1013.46 1013.40 1013.28 1013.14 1012.99 1012.82 1012.64 1012.42 1012.17 1011.89 1011.61 1011.38 1011.21 1011.14 1011.16 1011.26 1011.39 1011.52 1011.59 1011.57 1011.46 1011.28 1011.06 1010.85 1010.70 1010.64 1010.69 1010.83 1011.03 1011.24 1011.42 1011.51 1011.50 1011.36 1011.12 1010.81 1010.47 1010.14 1009.86 1009.65
1012.66 1013.06 1013.28 1013.36 1013.36 1013.33 1013.32 1013.35 1013.41 1013.46 1013.46 1013.38 1013.18 1012.89 1012.54 1012.18 1011.86 1011.65 1011.55 1011.55 1011.64 1011.74 1011.81 1011.80 1011.69 1011.47 1011.20 1010.92 1010.69 1010.55 1010.54 1010.65 1010.85 1011.08 1011.29 1011.42 1011.42 1011.29 1011.02 1010.66 1010.26 1009.86 1009.50 1009.23
1012.79 1013.01 1013.09 1013.09 1013.08 1013.14 1013.29 1013.55 1013.86 1014.15 1014.36 1014.41 1014.28 1013.96 1013.50 1012.99 1012.49 1012.09 1011.83 1011.72 1011.73 1011.79 1011.86 1011.86 1011.75 1011.53 1011.24 1010.91 1010.62 1010.43 1010.37 1010.45 1010.64 1010.88 1011.11 1011.27 1011.30 1011.18 1010.91 1010.52 1010.07 1009.61 1009.20 1008.87
1012.72 1012.77 1012.72 1012.67 1012.71 1012.90 1013.26 1013.77 1014.36 1014.91 1015.32 1015.50 1015.41 1015.05 1014.47 1013.77 1013.07 1012.45 1012.00 1011.74 1011.64 1011.66 1011.71 1011.72 1011.63 1011.44 1011.15 1010.82 1010.50 1010.28 1010.18 1010.24 1010.41 1010.65 1010.90 1011.08 1011.14 1011.04 1010.78 1010.39 1009.91 1009.41 1008.95 1008.55
1012.53 1012.43 1012.31 1012.26 1012.37 1012.72 1013.31 1014.08 1014.93 1015.72 1016.32 1016.61 1016.54 1016.11 1015.40 1014.50 1013.57 1012.72 1012.06 1011.63 1011.41 1011.36 1011.39 1011.42 1011.37 1011.21 1010.96 1010.64 1010.34 1010.10 1009.99 1010.02 1010.18 1010.42 1010.68 1010.88 1010.97 1010.90 1010.66 1010.28 1009.79 1009.27 1008.75 1008.29
1012.35 1012.16 1011.99 1011.97 1012.19 1012.71 1013.50 1014.50 1015.58 1016.56 1017.30 1017.66 1017.58 1017.07 1016.20 1015.11 1013.96 1012.89 1012.03 1011.43 1011.09 1010.96 1010.97 1011.01 1011.00 1010.90 1010.69 1010.42 1010.14 1009.91 1009.79 1009.81 1009.96 1010.20 1010.47 1010.69 1010.81 1010.78 1010.57 1010.21 1009.73 1009.18 1008.63 1008.11
1012.32 1012.07 1011.90 1011.93 1012.25 1012.91 1013.86 1015.03 1016.26 1017.36 1018.16 1018.54 1018.42 1017.81 1016.81 1015.55 1014.21 1012.96 1011.93 1011.18 1010.73 1010.54 1010.52 1010.57 1010.60 1010.55 1010.41 1010.19 1009.94 1009.74 1009.63 1009.64 1009.78 1010.02 1010.29 1010.54 1010.69 1010.69 1010.52 1010.19 1009.72 1009.17 1008.58 1008.01
1012.50 1012.24 1012.09 1012.18 1012.58 1013.32 1014.37 1015.61 1016.88 1018.00 1018.80 1019.14 1018.95 1018.26 1017.16 1015.78 1014.32 1012.94 1011.79 1010.94 1010.42 1010.18 1010.14 1010.19 1010.25 1010.24 1010.15 1009.97 1009.77 1009.58 1009.48 1009.50 1009.63 1009.87 1010.15 1010.41 1010.59 1010.63 1010.51 1010.21 1009.77 1009.22 1008.61 1008.00
1012.91 1012.67 1012.57 1012.70 1013.14 1013.90 1014.93 1016.14 1017.35 1018.40 1019.11 1019.37 1019.11 1018.36 1017.19 1015.77 1014.26 1012.85 1011.66 1010.78 1010.22 1009.94 1009.89 1009.94 1010.00 1010.02 1009.95 1009.80 1009.62 1009.45 1009.35 1009.36 1009.49 1009.72 1010.01 1010.29 1010.50 1010.58 1010.50 1010.25 1009.84 1009.31 1008.70 1008.06
1013.46 1013.29 1013.24 1013.39 1013.81 1014.51 1015.45 1016.52 1017.58 1018.47 1019.04 1019.19 1018.86 1018.08 1016.93 1015.54 1014.09 1012.73 1011.59 1010.73 1010.18 1009.91 1009.83 1009.86 1009.91 1009.91 1009.84 1009.69 1009.50 1009.32 1009.22 1009.21 1009.32 1009.54 1009.82 1010.12 1010.35 1010.48 1010.45 1010.25 1009.89 1009.39 1008.80 1008.17
1014.04 1013.95 1013.95 1014.10 1014.46 1015.04 1015.80 1016.66 1017.50 1018.18 1018.58 1018.61 1018.24 1017.48 1016.42 1015.16 1013.86 1012.65 1011.63 1010.86 1010.36 1010.09 1009.99 1009.99 1009.99 1009.94 1009.82 1009.63 1009.40 1009.19 1009.05 1009.01 1009.10 1009.29 1009.56 1009.85 1010.11 1010.27 1010.30 1010.17 1009.87 1009.44 1008.90 1008.30
1014.52 1014.52 1014.56 1014.69 1014.96 1015.38 1015.93 1016.54 1017.13 1017.58 1017.81 1017.75 1017.38 1016.70 1015.79 1014.73 1013.65 1012.65 1011.81 1011.17 1010.74 1010.49 1010.37 1010.30 1010.22 1010.08 1009.88 1009.61 1009.32 1009.05 1008.85 1008.76 1008.80 1008.95 1009.19 1009.47 1009.74 1009.94 1010.03 1009.97 1009.76 1009.42 1008.96 1008.44
1014.82 1014.89 1014.96 1015.07 1015.24 1015.50 1015.83 1016.21 1016.55 1016.80 1016.90 1016.78 1016.44 1015.90 1015.19 1014.38 1013.56 1012.80 1012.16 1011.67 1011.32 1011.08 1010.91 1010.76 1010.57 1010.32 1010.01 1009.64 1009.26 1008.91 1008.64 1008.48 1008.45 1008.54 1008.74 1009.00 1009.27 1009.49 1009.63 1009.65 1009.55 1009.31 1008.97 1008.56
1014.89 1015.03 1015.12 1015.20 1015.29 1015.42 1015.58 1015.75 1015.91 1016.01 1016.01 1015.89 1015.63 1015.24 1014.76 1014.21 1013.65 1013.14 1012.69 1012.32 1012.03 1011.79 1011.55 1011.30 1010.99 1010.62 1010.18 1009.71 1009.22 1008.78 1008.43 1008.19 1008.08 1008.11 1008.25 1008.47 1008.72 1008.96 1009.15 1009.25 1009.25 1009.14 1008.94 1008.66
1014.79 1014.97 1015.08 1015.15 1015.20 1015.23 1015.28 1015.32 1015.36 1015.38 1015.35 1015.26 1015.11 1014.88 1014.61 1014.29 1013.97 1013.66 1013.36 1013.08 1012.81 1012.53 1012.22 1011.86 1011.43 1010.93 1010.38 1009.80 1009.23 1008.71 1008.27 1007.96 1007.77 1007.72 1007.79 1007.95 1008.17 1008.41 1008.64 1008.81 1008.91 1008.93 1008.87 1008.75
1014.62 1014.83 1014.96 1015.04 1015.07 1015.08 1015.07 1015.07 1015.06 1015.06 1015.05 1015.02 1014.97 1014.89 1014.79 1014.66 1014.50 1014.31 1014.10 1013.85 1013.57 1013.23 1012.82 1012.35 1011.81 1011.20 1010.56 1009.91 1009.28 1008.70 1008.20 1007.82 1007.56 1007.43 1007.42 1007.51 1007.69 1007.91 1008.15 1008.38 1008.57 1008.71 1008.79 1008.80
1014.53 1014.74 1014.89 1014.99 1015.05 1015.07 1015.08 1015.09 1015.10 1015.13 1015.16 1015.20 1015.24 1015.27 1015.27 1015.24 1015.16 1015.02 1014.82 1014.55 1014.20 1013.78 1013.27 1012.70 1012.07 1011.40 1010.71 1010.02 1009.37 1008.76 1008.23 1007.80 1007.48 1007.27 1007.18 1007.20 1007.31 1007.49 1007.73 1007.99 1008.25 1008.49 1008.68 1008.83
1014.62 1014.83 1015.00 1015.14 1015.24 1015.32 1015.38 1015.44 1015.50 1015.57 1015.66 1015.75 1015.84 1015.90 1015.94 1015.92 1015.83 1015.67 1015.41 1015.06 1014.62 1014.09 1013.50 1012.85 1012.17 1011.47 1010.78 1010.10 1009.46 1008.87 1008.34 1007.89 1007.52 1007.25 1007.08 1007.01 1007.05 1007.18 1007.38 1007.65 1007.95 1008.25 1008.54 1008.79
1014.98 1015.17 1015.36 1015.53 1015.69 1015.83 1015.95 1016.07 1016.18 1016.29 1016.40 1016.51 1016.59 1016.64 1016.64 1016.56 1016.39 1016.12 1015.76 1015.29 1014.74 1014.13 1013.46 1012.77 1012.07 1011.39 1010.74 1010.11 1009.52 1008.98 1008.48 1008.02 1007.63 1007.30 1007.06 1006.91 1006.86 1006.92 1007.08 1007.32 1007.63 1007.98 1008.33 1008.66
1015.59 1015.77 1015.97 1016.17 1016.36 1016.54 1016.71 1016.86 1016.99 1017.11 1017.21 1017.28 1017.30 1017.28 1017.18 1016.99 1016.69 1016.30 1015.80 1015.21 1014.56 1013.86 1013.15 1012.44 1011.77 1011.14 1010.55 1010.01 1009.50 1009.02 1008.57 1008.13 1007.72 1007.35 1007.04 1006.81 1006.67 1006.65 1006.76 1006.96 1007.26 1007.62 1008.01 1008.40
1016.39 1016.57 1016.76 1016.96 1017.16 1017.34 1017.51 1017.64 1017.75 1017.83 1017.87 1017.86 1017.79 1017.65 1017.42 1017.09 1016.66 1016.12 1015.50 1014.81 1014.07 1013.32 1012.59 1011.90 1011.27 1010.71 1010.21 1009.76 1009.34 1008.94 1008.53 1008.12 1007.71 1007.30 1006.94 1006.63 1006.42 1006.32 1006.36 1006.52 1006.79 1007.15 1007.57 1008.00
1017.27 1017.44 1017.62 1017.79 1017.96 1018.09 1018.20 1018.28 1018.31 1018.30 1018.23 1018.11 1017.91 1017.64 1017.27 1016.81 1016.25 1015.60 1014.88 1014.11 1013.32 1012.55 1011.83 1011.18 1010.61 1010.13 1009.71 1009.35 1009.02 1008.68 1008.33 1007.94 1007.52 1007.09 1006.68 1006.31 1006.03 1005.87 1005.84 1005.95 1006.20 1006.55 1006.99 1007.45
1018.13 1018.29 1018.43 1018.55 1018.63 1018.68 1018.68 1018.64 1018.54 1018.40 1018.20 1017.94 1017.61 1017.21 1016.73 1016.16 1015.50 1014.77 1014.00 1013.19 1012.39 1011.63 1010.94 1010.34 1009.83 1009.42 1009.08 1008.79 1008.52 1008.24 1007.92 1007.55 1007.13 1006.68 1006.23 1005.82 1005.48 1005.26 1005.19 1005.26 1005.49 1005.84 1006.29 1006.79
1018.86 1019.00 1019.09 1019.13 1019.10 1019.01 1018.87 1018.67 1018.42 1018.12 1017.78 1017.38 1016.93 1016.42 1015.85 1015.20 1014.49 1013.73 1012.94 1012.14 1011.36 1010.63 1009.98 1009.43 1008.97 1008.61 1008.33 1008.09 1007.86 1007.61 1007.31 1006.95 1006.53 1006.07 1005.60 1005.16 1004.79 1004.53 1004.42 1004.47 1004.69 1005.04 1005.51 1006.05
1019.41 1019.53 1019.55 1019.48 1019.32 1019.07 1018.76 1018.39 1017.98 1017.52 1017.03 1016.52 1015.96 1015.38 1014.74 1014.06 1013.34 1012.58 1011.80 1011.03 1010.29 1009.60 1008.99 1008.48 1008.07 1007.74 1007.48 1007.27 1007.06 1006.82 1006.53 1006.18 1005.77 1005.30 1004.82 1004.37 1003.99 1003.72 1003.59 1003.63 1003.84 1004.21 1004.70 1005.29
1019.78 1019.85 1019.79 1019.60 1019.29 1018.89 1018.41 1017.87 1017.30 1016.70 1016.10 1015.48 1014.85 1014.21 1013.55 1012.86 1012.15 1011.41 1010.66 1009.93 1009.22 1008.57 1008.00 1007.51 1007.12 1006.81 1006.57 1006.36 1006.15 1005.92 1005.64 1005.29 1004.89 1004.43 1003.97 1003.52 1003.14 1002.87 1002.75 1002.80 1003.01 1003.40 1003.92 1004.55
Thickness
5775 5760 5750 5760 5768 5769 5771 5768 5766 5778 5798 5794 5786 5790 5797 5803 5801 5792 5786 5784 5782 5782 5786 5787 5785 5781 5774 5768 5764 5762 5760 5759 5757 5753 5749 5746 5744 5744 5746 5748 5749 5748 5747 5746
5753 5749 5770 5780 5786 5781 5773 5760 5760 5772 5787 5786 5775 5774 5784 5791 5793 5787 5780 5775 5774 5773 5774 5775 5775 5773 5768 5762 5758 5753 5750 5749 5747 5745 5743 5742 5739 5738 5738 5739 5741 5741 5741 5740
5748 5766 5789 5784 5775 5769 5765 5755 5756 5759 5766 5771 5762 5748 5758 5770 5781 5780 5777 5775 5773 5770 5766 5766 5766 5765 5762 5758 5756 5753 5750 5746 5743 5741 5738 5735 5732 5731 5730 5731 5732 5735 5735 5735
5765 5779 5782 5773 5767 5766 5749 5766 5766 5761 5746 5734 5743 5715 5739 5752 5757 5762 5764 5764 5763 5764 5762 5760 5759 5759 5757 5756 5755 5752 5748 5745 5741 5738 5732 5727 5722 5719 5721 5723 5724 5727 5728 5728
5756 5770 5768 5762 5766 5769 5760 5770 5762 5755 5741 5729 5734 5717 5723 5740 5737 5744 5751 5754 5757 5758 5757 5756 5757 5757 5757 5756 5752 5747 5743 5739 5737 5733 5728 5721 5716 5714 5715 5715 5716 5718 5720 5721
5763 5777 5776 5771 5776 5774 5768 5756 5743 5730 5716 5701 5718 5713 5711 5723 5734 5738 5744 5750 5754 5755 5755 5755 5756 5755 5752 5749 5744 5740 5735 5731 5728 5724 5719 5713 5708 5705 5703 5703 5705 5708 5710 5712
5748 5759 5770 5774 5761 5759 5751 5717 5691 5690 5682 5688 5717 5711 5709 5737 5747 5744 5743 5746 5750 5751 5750 5748 5747 5745 5742 5738 5735 5731 5727 5722 5718 5713 5707 5703 5698 5695 5692 5692 5693 5695 5699 5703
5728 5726 5754 5766 5757 5746 5745 5719 5687 5676 5672 5684 5705 5703 5715 5744 5749 5749 5748 5747 5748 5747 5745 5742 5739 5737 5734 5731 5728 5724 5719 5715 5710 5705 5698 5693 5688 5684 5682 5681 5682 5684 5688 5693
5729 5729 5760 5768 5771 5757 5740 5724 5716 5691 5688 5680 5690 5711 5724 5737 5737 5739 5740 5740 5740 5740 5740 5737 5735 5732 5729 5726 5723 5718 5714 5709 5703 5697 5691 5684 5678 5674 5671 5670 5671 5673 5676 5681
5745 5731 5746 5761 5765 5758 5749 5733 5705 5692 5677 5667 5682 5693 5697 5717 5723 5729 5729 5730 5733 5736 5735 5733 5730 5729 5726 5723 5720 5716 5711 5705 5698 5691 5684 5677 5672 5666 5663 5661 5660 5661 5663 5667
5746 5724 5726 5736 5736 5733 5736 5731 5712 5690 5679 5665 5661 5681 5718 5722 5727 5728 5728 5727 5726 5725 5725 5724 5724 5725 5723 5720 5716 5710 5705 5699 5692 5685 5679 5672 5666 5661 5656 5653 5652 5651 5652 5654
5742 5716 5707 5719 5739 5750 5740 5728 5708 5688 5682 5675 5666 5682 5728 5727 5727 5724 5720 5720 5721 5720 5718 5717 5718 5717 5715 5713 5709 5703 5699 5694 5688 5682 5675 5668 5661 5655 5650 5647 5645 5643 5642 5643
5737 5710 5692 5698 5710 5727 5728 5730 5721 5701 5685 5673 5665 5681 5714 5714 5712 5712 5710 5710 5708 5706 5705 5705 5706 5704 5703 5703 5701 5697 5693 5689 5684 5677 5670 5663 5655 5649 5645 5642 5640 5638 5636 5635
5738 5711 5694 5688 5693 5706 5710 5720 5723 5708 5682 5675 5681 5689 5691 5695 5696 5696 5694 5694 5693 5692 5691 5691 5690 5688 5689 5691 5692 5691 5687 5685 5680 5673 5665 5659 5652 5646 5642 5639 5636 5634 5631 5630
5732 5711 5711 5709 5714 5716 5716 5719 5722 5715 5708 5693 5690 5680 5684 5689 5688 5685 5684 5684 5682 5678 5675 5672 5670 5670 5672 5674 5678 5681 5681 5679 5676 5669 5662 5656 5650 5643 5639 5635 5632 5629 5626 5624
5731 5717 5716 5709 5716 5715 5714 5719 5721 5715 5707 5694 5684 5680 5689 5687 5681 5674 5672 5670 5665 5662 5660 5658 5658 5657 5657 5658 5661 5666 5669 5672 5670 5664 5659 5654 5646 5640 5635 5632 5628 5624 5620 5618
5722 5712 5703 5690 5702 5701 5693 5703 5705 5694 5690 5686 5673 5671 5677 5671 5664 5656 5654 5652 5649 5647 5646 5644 5643 5642 5641 5642 5644 5647 5654 5660 5660 5657 5653 5648 5642 5636 5632 5629 5624 5620 5615 5612
5720 5704 5688 5681 5682 5674 5685 5706 5700 5681 5662 5664 5660 5651 5649 5649 5646 5639 5632 5627 5626 5626 5626 5626 5626 5626 5626 5627 5630 5635 5640 5644 5647 5648 5646 5643 5638 5632 5628 5624 5620 5617 5611 5606
5724 5703 5683 5670 5667 5671 5690 5696 5693 5672 5642 5638 5632 5628 5627 5628 5633 5627 5618 5611 5607 5607 5607 5607 5608 5609 5610 5612 5614 5618 5623 5626 5629 5632 5634 5636 5633 5628 5623 5619 5616 5613 5607 5601
5711 5700 5681 5668 5658 5650 5667 5677 5681 5665 5627 5620 5615 5611 5608 5606 5596 5598 5603 5599 5596 5595 5593 5591 5590 5590 5590 5593 5595 5597 5601 5605 5607 5610 5617 5624 5626 5623 5619 5616 5613 5610 5605 5598
5686 5680 5672 5661 5652 5659 5644 5656 5660 5640 5617 5604 5600 5595 5591 5585 5579 5582 5584 5581 5577 5575 5574 5572 5569 5568 5569 5571 5573 5574 5577 5582 5588 5594 5602 5608 5612 5615 5615 5612 5609 5606 5601 5595
5671 5664 5660 5655 5644 5637 5630 5631 5616 5600 5594 5591 5590 5586 5580 5575 5571 5567 5565 5563 5560 5557 5555 5551 5546 5546 5546 5547 5549 5553 5554 5559 5568 5578 5585 5590 5597 5604 5608 5606 5605 5603 5597 5591
5667 5660 5651 5638 5625 5614 5611 5602 5595 5591 5585 5582 5577 5571 5563 5558 5554 5551 5547 5543 5541 5538 5535 5532 5526 5526 5526 5525 5525 5528 5534 5540 5549 5559 5567 5575 5583 5592 5598 5601 5601 5599 5594 5590
5656 5650 5634 5617 5608 5605 5601 5595 5588 5582 5574 5570 5563 5556 5548 5541 5537 5533 5530 5527 5524 5523 5521 5518 5515 5513 5513 5512 5511 5512 5516 5521 5530 5540 5550 5561 5571 5582 5589 5594 5598 5598 5593 5589
5629 5626 5615 5600 5597 5594 5587 5580 5575 5571 5565 5560 5554 5546 5537 5529 5524 5519 5515 5514 5513 5514 5513 5512 5509 5508 5507 5505 5504 5505 5505 5507 5512 5522 5533 5546 5559 5572 5582 5589 5594 5598 5597 5595
5610 5602 5594 5582 5578 5571 5568 5567 5564 5557 5551 5545 5537 5531 5526 5515 5507 5504 5502 5503 5505 5507 5508 5506 5505 5504 5503 5501 5499 5499 5499 5499 5502 5509 5519 5532 5548 5564 5576 5584 5588 5592 5594 5592